www.pogodaiklimat.ru

Погода и климат >> Архив погоды >> Самоа >> Maota Int Airport


ПОГОДА в Maota Int Airport

  • Прогноз погоды в Maota Int Airport
  • Монитор погоды в Maota Int Airport
  • Климат города

АРХИВ ПОГОДЫ в Maota Int Airport

Время (UTC), дата Ветер
(напр.,м/с)
 
Видим.   Явления Облачность Т
(С)
Тd
(С)
f
(%)
Тe
(С)
Тes
(С)
Комфортность P
(гПа)
Po
(гПа)
Тmin
(С)
Tmax
(С)
R
(мм)
R24
(мм)
S
(см)
03 15.09 В 1 н/о н/о -40.0 0.0 100 -45 -45 опасность
обморожения
1011.4 1008.1
06 15.09 В 1 н/о н/о -40.0 0.0 100 -42 -42 опасность
обморожения
1012.4 1009.1
09 15.09 штиль 0 н/о н/о -40.0 0.0 100 -40 -40 опасность
обморожения
1014.4 1011.1
12 15.09 штиль 0 н/о н/о -40.0 0.0 100 -40 -40 опасность
обморожения
1013.8 1010.5 -40.0
15 15.09 штиль 0 н/о н/о -40.0 0.0 100 -40 -40 опасность
обморожения
1012.2 1008.9
18 15.09 штиль 0 н/о н/о -40.0 0.0 100 -40 -40 опасность
обморожения
1013.9 1010.6
21 15.09 В 1 н/о н/о -40.0 0.0 100 -42 -42 опасность
обморожения
1015.0 1011.7
00 16.09 В 1 н/о н/о -40.0 0.0 100 -42 -42 опасность
обморожения
1013.3 1010.0 -40.0
03 16.09 ЮВ 1 н/о н/о -40.0 0.0 100 -42 -42 опасность
обморожения
1011.9 1008.6
06 16.09 В 1 н/о н/о -40.0 0.0 100 -42 -42 опасность
обморожения
1013.1 1009.8
09 16.09 штиль 0 н/о н/о -40.0 0.0 100 -40 -40 опасность
обморожения
1014.9 1011.6
12 16.09 штиль 0 н/о н/о -40.0 0.0 100 -40 -40 опасность
обморожения
1014.2 1010.9 -40.0
15 16.09 штиль 0 н/о н/о -40.0 0.0 100 -40 -40 опасность
обморожения
1012.8 1009.5
18 16.09 штиль 0 н/о н/о -40.0 0.0 100 -40 -40 опасность
обморожения
1014.5 1011.2
21 16.09 штиль 0 н/о н/о -40.0 0.0 100 -40 -40 опасность
обморожения
1015.8 1012.5
00 17.09 В 1 н/о н/о -40.0 0.0 100 -42 -42 опасность
обморожения
1013.7 1010.4 -40.0
03 17.09 ЮВ 1 н/о н/о -40.0 0.0 100 -45 -45 опасность
обморожения
1012.1 1008.8
06 17.09 Ю 1 н/о н/о -40.0 0.0 100 -42 -42 опасность
обморожения
1013.6 1010.3
09 17.09 штиль 0 н/о н/о -40.0 0.0 100 -40 -40 опасность
обморожения
1015.4 1012.1
12 17.09 штиль 0 н/о н/о -40.0 0.0 100 -40 -40 опасность
обморожения
1014.7 1011.4 -40.0
15 17.09 штиль 0 н/о н/о -40.0 0.0 100 -40 -40 опасность
обморожения
1013.3 1010.0
18 17.09 штиль 0 н/о н/о -40.0 0.0 100 -40 -40 опасность
обморожения
1014.4 1011.1
21 17.09 Ю 1 н/о н/о -40.0 0.0 100 -42 -42 опасность
обморожения
1015.4 1012.1
00 18.09 ЮВ 1 н/о н/о -40.0 0.0 100 -42 -42 опасность
обморожения
1013.4 1010.1 -40.0
03 18.09 ЮВ 1 н/о н/о -40.0 0.0 100 -45 -45 опасность
обморожения
1011.6 1008.3
06 18.09 Ю 1 н/о н/о -40.0 0.0 100 -42 -42 опасность
обморожения
1012.5 1009.2
09 18.09 штиль 0 н/о н/о -40.0 0.0 100 -40 -40 опасность
обморожения
1014.0 1010.7
12 18.09 штиль 0 н/о н/о -40.0 0.0 100 -40 -40 опасность
обморожения
1013.2 1009.9 -40.0
15 18.09 штиль 0 н/о н/о -40.0 0.0 100 -40 -40 опасность
обморожения
1011.8 1008.5
18 18.09 штиль 0 н/о н/о -40.0 0.0 100 -40 -40 опасность
обморожения
1012.8 1009.5
21 18.09 ЮВ 1 н/о н/о -40.0 0.0 100 -42 -42 опасность
обморожения
1013.4 1010.1
00 19.09 ЮВ 1 н/о н/о -40.0 0.0 100 -42 -42 опасность
обморожения
1011.6 1008.3 -40.0
03 19.09 Ю 1 н/о н/о -40.0 0.0 100 -42 -42 опасность
обморожения
1010.2 1006.9
06 19.09 штиль 0 н/о н/о -40.0 0.0 100 -40 -40 опасность
обморожения
1011.3 1008.0
09 19.09 штиль 0 н/о н/о -40.0 0.0 100 -40 -40 опасность
обморожения
1012.5 1009.2
12 19.09 штиль 0 н/о н/о -40.0 0.0 100 -40 -40 опасность
обморожения
1012.0 1008.7 -40.0
15 19.09 штиль 0 н/о н/о -40.0 0.0 100 -40 -40 опасность
обморожения
1010.3 1007.0
18 19.09 штиль 0 н/о н/о -40.0 0.0 100 -40 -40 опасность
обморожения
1012.1 1008.8
21 19.09 штиль 0 н/о н/о -40.0 0.0 100 -40 -40 опасность
обморожения
1013.5 1010.2 4
00 20.09 штиль 0 н/о н/о -40.0 0.0 100 -40 -40 опасность
обморожения
1012.2 1008.9 -40.0 3
03 20.09 Ю 1 н/о н/о -40.0 0.0 100 -42 -42 опасность
обморожения
1010.6 1007.3
06 20.09 штиль 0 н/о н/о -40.0 0.0 100 -40 -40 опасность
обморожения
1011.1 1007.8
09 20.09 штиль 0 н/о н/о -40.0 0.0 100 -40 -40 опасность
обморожения
1012.8 1009.5
12 20.09 штиль 0 н/о н/о -40.0 0.0 100 -40 -40 опасность
обморожения
1012.5 1009.2 -40.0
15 20.09 штиль 0 н/о н/о -40.0 0.0 100 -40 -40 опасность
обморожения
1011.1 1007.8
18 20.09 штиль 0 н/о н/о -40.0 0.0 100 -40 -40 опасность
обморожения
1012.3 1009.0
21 20.09 ЮВ 1 н/о н/о -40.0 0.0 100 -42 -42 опасность
обморожения
1013.7 1010.4
00 21.09 ЮВ 1 н/о н/о -40.0 0.0 100 -42 -42 опасность
обморожения
1012.5 1009.2 -40.0
03 21.09 штиль 0 н/о н/о -40.0 0.0 100 -40 -40 опасность
обморожения
1011.7 1008.4
06 21.09 С 1 н/о н/о -40.0 0.0 100 -45 -45 опасность
обморожения
1013.4 1010.1 0.5
09 21.09 штиль 0 н/о н/о -40.0 0.0 100 -40 -40 опасность
обморожения
1014.7 1011.4
12 21.09 штиль 0 н/о н/о -40.0 0.0 100 -40 -40 опасность
обморожения
1013.8 1010.5 -40.0
15 21.09 штиль 0 н/о н/о -40.0 0.0 100 -40 -40 опасность
обморожения
1012.2 1008.9
18 21.09 штиль 0 н/о н/о -40.0 0.0 100 -40 -40 опасность
обморожения
1013.5 1010.2
21 21.09 В 1 н/о н/о -40.0 0.0 100 -42 -42 опасность
обморожения
1015.0 1011.7
00 22.09 штиль 0 н/о н/о -40.0 0.0 100 -40 -40 опасность
обморожения
1013.8 1010.5 -40.0

 

Местоположение метеостанции Maota Int Airport (Самоа): широта -13.74 долгота -172.26 высота над уровнем моря 23 м.

В архиве по умолчанию представлена погода в Maota Int Airport за последнюю неделю. Архивные данные за месяц целиком и за предыдущие месяцы, начиная с января 2011 года, Вы можете получить, выбрав интересующий диапазон дат из раскрывающегося списка и нажав кнопку "Ввод!".

Внимание! Время в таблицах - всемирное. Для получения местного времени необходимо прибавить поправку, которая в Maota Int Airport равна 13 ч.

Смотрите также архив погоды в соседних городах и на ближайших метеорологических станциях:

Погода в Manono (Самоа) (20 км)
Погода в Faleolo Int Airport (Самоа) (28 км)
Погода в Faleolo Int Airport (Американское Самоа) (29 км)
Погода в Faleolo Int East (Самоа) (31 км)
Погода в Le Piu Tai (Самоа) (34 км)
Погода в Mount Talu (Самоа) (53 км)
Погода в Apia (Американское Самоа) (61 км)
Погода в Togitogiga (Самоа) (62 км)
Погода в Le Mafa (Самоа) (75 км)
Погода в Lufi-Lufi (Самоа) (77 км)

Пояснения к столбцам:

Ветер - указаны скорость ветра в м/с - средняя за 10 мин, порывы в срок и между сроками (в фигурных скобках) и направление, откуда дует ветер: С - северный, СВ - северо-восточный, В - восточный, ЮВ - юго-восточный, Ю - южный, ЮЗ - юго-западный, З - западный, СЗ - северо-западный.
Видимость - горизонтальная дальность видимости в метрах или километрах. При видимости от 1 до 10 км при отсутствии осадков обычно наблюдается дымка, при ухудшении видимости до 1 км и менее - туман. В сухую погоду видимость может ухудшаться дымом, пылью или мглою.
Явления - указаны атмосферные явления, наблюдавшиеся в срок или в последний час перед сроком; фигурными скобками обозначены явления, наблюдавшиеся между сроками (за 1-3 часа до срока); квадратными скобками обозначены град или гололедные отложения с указанием их диаметра в мм.
Облачность - указаны через наклонную черту общая и нижняя облачность в баллах и высота нижней границы облаков в метрах; квадратными скобками обозначены формы облаков: Ci - перистые, Cs - перисто-слоистые, Cc - перисто-кучевые, Ac - высококучевые, As - высокослоистые, Sc - слоисто-кучевые, Ns - слоисто-дождевые, Cu - кучевые, Cb - кучево-дождевые. Подробнее классификацию облаков см. в Атласе облаков (PDF).
T - Температура воздуха - температура, измеренная на высоте 2 м над землей.
Td - Температура точки росы - температура, при понижении до которой содержащийся в воздухе водяной пар достигнет насыщения.
f - Относительная влажность воздуха - влажноcть воздуха, измеренная на высоте 2 м над землей.
Te - Эффективная температура - температура, которую ощущает одетый по сезону человек в тени. Характеристика душности погоды. При расчете учитывается влияние влажности воздуха и скорости ветра на теплоощущения человека.
Tes - Эффективная температура на солнце - температура, которую ощущает человек, с поправкой на солнечный нагрев. Характеристика знойности погоды. Зависит от высоты солнца над горизонтом, облачности и скорости ветра. Ночью, в пасмурную погоду, а также при ветре 12 м/с и более поправка равна нулю.
P - Атмосферное давление - приведенное к уровню моря атмосферное давление.
Po - Атмосферное давление - измеренное на уровне метеостанции атмосферное давление.
Tmin - Минимальная температура - минимум температуры воздуха на высоте 2 м над землей.
Tmax - Максимальная температура - максимум температуры воздуха на высоте 2 м над землей.
R - Количество осадков - Количество выпавших осадков за период времени, мм. При наведении курсора мыши на число - период времени, за который выпало указанное количество осадков.
R24 - Количество осадков - Количество выпавших осадков за 24 часа, мм.
S - Снежный покров - Высота снежного покрова, см. При наведении курсора мыши на число - состояние снежного покрова и степень покрытия местности в баллах.